USA 77

导读

USA 77是美国于1991年11月8日发射的军用侦察卫星,隶属于美国国家安全航天计划。作为冷战后期美国机密太空资产的一部分,该卫星主要承担成像侦察与电子信号情报收集任务,依托近地轨道运行,为美军提供战略态势感知支持。作为USA系列保密卫星的成员,其具体任务参数与服役细节并未公开,这类卫星构建了美国全球监测体系,在当时地缘战略情报获取中发挥关键作用。

基本信息
目录编号:
21809
目录名称:
USA 77
国际标识:
1991-076E
轨道中心:
EARTH
卫星名称:
USA 77
卫星全名:
--
卫星状态:
在轨 (已飞行12726 天)
发射日期:
1991-11-08 UTC
国别 :
美国 (US)
星等 :
--
该卫星已列入 空间交会检测服务 Space Conjunction Data Service (SCDS) ,当前飞行风险评估等级: 无高风险
轨道信息
数据来源 国际轨道数据 AOE轨道数据
星历时间 2026-09-11T10:09:02+0800
15小时前
查看轨道信息
2026-09-07T02:00:00+0800
4天前
查看轨道信息
半长轴 7424.542km 7424.593km
偏心率 0.0899076 0.0899076
轨道倾角 63.295° 63.295°
近地点辐角 76.327° 76.235°
升交点赤经 288.281° 299.881°
平近点角 293.614° 332.999°
近地点 378.882km 378.928km
远地点 1713.928km 1713.984km
周期 106.112分钟 106.113分钟
每日圈数 13.570578 13.570436
详细信息
使用方式:
暂无
2D轨道图
3D轨道图
轨道高度分析图
轨道倾角分析图
轨道综合分析图
查看轨道综合分析图
与全量物体交会距离演化趋势
与全量物体交会风险概率演化趋势